Date,TemperatureHighF,TemperatureAvgF,TemperatureLowF,DewpointHighF,DewpointAvgF,DewpointLowF,HumidityHigh,HumidityAvg,HumidityLow,PressureMaxIn,PressureMinIn,WindSpeedMaxMPH,WindSpeedAvgMPH,GustSpeedMaxMPH,PrecipitationSumIn
2014-1-1,62.8,43.3,28.0,32.3,25.4,16.1,87,55,25,30.28,30.17,6,0,0,0.00
2014-1-2,64.1,43.5,28.3,30.2,20.2,12.2,71,43,16,30.31,30.14,2,0,0,0.00
2014-1-3,60.9,39.7,26.4,29.6,25.3,21.8,84,61,25,30.18,30.00,3,0,0,0.00
2014-1-4,58.1,39.9,27.6,32.4,26.0,10.4,92,62,30,30.17,29.96,3,0,0,0.00
2014-1-5,55.9,37.3,22.4,13.2,6.9,-0.4,62,31,13,30.36,30.17,4,0,0,0.00
2014-1-6,59.6,40.1,26.9,17.5,8.9,0.2,52,29,13,30.44,30.27,5,0,0,0.00
2014-1-7,56.1,38.3,27.5,24.5,20.2,14.4,73,51,22,30.31,30.12,3,0,0,0.00
2014-1-8,57.7,37.4,24.8,25.9,21.5,17.7,79,57,22,30.21,30.08,3,0,0,0.00
2014-1-9,57.0,37.2,27.5,25.9,22.7,17.8,80,60,23,30.19,30.01,3,0,0,0.00
2014-1-10,56.4,37.4,24.4,30.9,24.5,20.1,86,63,30,30.27,30.11,3,0,0,0.00
2014-1-11,62.9,41.4,28.8,32.6,28.2,24.8,88,64,28,30.32,30.08,3,0,0,0.00
2014-1-12,61.8,44.6,31.0,31.9,22.9,9.4,85,49,14,30.29,30.03,5,0,0,0.00
2014-1-13,59.0,39.6,26.2,25.5,18.2,12.7,65,45,19,30.44,30.28,4,0,0,0.00
2014-1-14,66.0,44.7,26.5,24.0,16.7,10.4,70,38,12,30.48,30.36,9,1,0,0.00
2014-1-15,64.6,44.5,31.1,30.1,21.9,16.4,63,43,19,30.44,30.22,3,0,0,0.00
2014-1-16,65.8,48.8,32.7,22.4,14.6,5.7,60,30,12,30.29,30.17,7,0,13,0.00
2014-1-17,66.2,46.0,31.3,22.4,16.1,9.2,57,33,12,30.29,30.13,4,0,0,0.00
2014-1-18,66.7,43.7,28.1,28.2,19.8,14.5,67,42,17,30.27,30.14,3,0,0,0.00
2014-1-19,66.4,44.7,28.2,30.9,19.9,15.2,66,41,15,30.32,30.18,3,0,0,0.00
2014-1-20,55.2,50.4,43.1,20.0,14.3,8.6,39,24,17,30.36,30.29,5,1,0,0.00
2014-1-21,64.1,47.2,34.9,36.2,22.0,14.9,62,39,17,30.38,30.15,3,0,0,0.00
2014-1-22,64.2,45.1,32.4,31.8,24.8,13.6,70,49,15,30.17,29.90,5,0,0,0.00
2014-1-23,59.9,44.2,28.0,23.0,18.5,12.6,71,40,20,30.32,29.96,6,1,12,0.00
2014-1-24,58.1,45.0,35.2,23.3,19.9,15.8,56,38,22,30.41,30.30,4,0,0,0.00
2014-1-25,64.8,46.8,34.3,29.8,22.3,15.8,63,41,16,30.35,30.13,4,0,0,0.00
2014-1-26,63.2,42.3,28.7,25.8,21.2,12.2,73,48,15,30.16,30.00,3,0,0,0.00
2014-1-27,61.8,43.3,31.8,29.3,21.2,7.9,74,46,13,30.10,29.97,4,0,0,0.00
2014-1-28,63.8,42.5,27.6,26.2,20.1,15.0,70,44,17,30.20,30.08,3,0,0,0.00
2014-1-29,63.6,43.5,28.0,30.6,20.6,14.6,64,43,18,30.21,29.99,4,0,0,0.00
2014-1-30,60.0,47.1,31.8,30.7,25.8,22.3,73,46,28,30.02,29.76,4,0,0,0.00
2014-1-31,52.1,45.0,36.6,39.4,33.7,26.4,96,68,38,29.79,29.66,11,0,0,0.06
2014-2-1,52.9,38.6,27.4,36.2,26.0,12.7,96,65,25,30.05,29.79,7,0,0,0.01
2014-2-2,50.7,35.3,22.9,25.8,21.6,18.9,87,60,34,30.17,30.01,6,0,0,0.00
2014-2-3,45.6,34.3,25.3,26.8,23.9,18.0,87,68,36,30.04,29.86,4,0,0,0.00
2014-2-4,52.2,37.8,28.8,29.3,25.8,19.4,90,66,29,30.12,29.97,13,1,13,0.00
2014-2-5,52.0,39.0,29.3,31.3,28.6,25.3,86,68,38,30.13,29.98,5,0,0,0.00
2014-2-6,46.8,36.4,24.6,33.8,28.9,22.5,93,75,55,30.12,30.00,4,0,0,0.00
2014-2-7,47.9,39.9,33.3,39.8,35.8,31.5,97,86,66,30.19,30.03,4,0,0,0.01
2014-2-8,60.1,43.8,31.7,39.5,35.6,30.7,98,76,39,30.30,30.16,4,0,0,0.00
2014-2-9,66.2,46.7,32.0,40.9,35.8,30.4,97,70,31,30.23,30.00,5,0,0,0.00
2014-2-10,65.0,47.4,32.3,40.2,34.4,29.8,96,65,33,30.08,29.90,6,0,13,0.00
2014-2-11,63.9,50.0,36.4,32.4,27.7,18.2,69,44,18,30.11,29.94,5,0,12,0.00
2014-2-12,68.5,47.0,31.4,33.3,24.8,18.9,73,46,16,30.24,30.09,4,0,0,0.00
2014-2-13,75.5,51.4,33.9,35.4,29.7,23.7,78,49,15,30.19,29.97,5,0,0,0.00
2014-2-14,74.8,51.8,35.8,36.9,30.9,25.9,75,50,17,30.14,30.01,5,0,0,0.00
2014-2-15,76.7,51.3,35.7,36.6,28.9,18.8,74,48,12,30.10,29.96,7,0,0,0.00
2014-2-16,67.5,49.7,36.5,38.9,30.2,25.4,68,50,24,30.13,29.97,4,0,0,0.00
2014-2-17,73.8,51.7,32.5,28.6,24.9,19.7,70,41,14,30.18,29.96,6,0,0,0.00
2014-2-18,70.8,51.4,35.1,34.2,28.4,18.9,73,45,14,30.06,29.91,5,0,0,0.00
2014-2-19,72.0,52.4,33.9,32.1,21.7,-0.9,76,37,10,29.95,29.71,12,1,14,0.00
2014-2-20,62.8,45.9,31.8,20.5,13.1,6.8,52,29,11,30.14,29.89,6,0,0,0.00
2014-2-21,67.5,45.1,27.8,19.8,15.9,12.2,62,35,13,30.15,29.94,4,0,0,0.00
2014-2-22,68.0,46.6,29.1,24.7,18.5,14.7,62,36,15,30.03,29.89,6,0,0,0.00
2014-2-23,69.8,47.8,31.3,27.8,21.7,18.4,66,40,15,30.09,29.96,5,0,0,0.00
2014-2-24,72.8,49.6,31.6,29.9,23.8,20.0,67,41,15,30.10,29.95,6,0,0,0.00
2014-2-25,69.0,49.5,35.2,31.1,27.6,22.9,68,46,20,30.04,29.92,6,0,0,0.00
2014-2-26,69.5,50.9,32.7,41.9,31.4,26.5,81,52,23,30.07,29.89,5,0,0,0.00
2014-2-27,65.7,51.4,38.0,45.2,35.1,29.8,85,57,28,29.94,29.72,12,1,15,0.04
2014-2-28,61.3,50.5,38.4,47.9,38.6,32.8,84,65,40,29.91,29.71,5,0,0,0.00
2014-3-1,52.8,46.4,37.5,49.4,44.6,36.3,97,93,83,29.91,29.66,10,1,13,1.64
2014-3-2,52.2,43.0,37.5,45.2,40.4,36.5,98,91,63,30.17,29.88,3,0,0,0.17
2014-3-3,66.8,48.3,34.3,45.8,40.1,33.5,98,77,39,30.16,29.97,4,0,0,0.00
2014-3-4,65.3,49.5,40.0,45.7,40.6,35.9,95,74,40,30.03,29.85,4,0,0,0.00
2014-3-5,70.3,49.7,34.4,39.5,34.5,27.4,90,62,22,30.14,30.00,4,0,0,0.00
2014-3-6,68.5,49.5,36.4,40.5,34.7,29.8,89,62,26,30.11,29.90,2,0,0,0.00
2014-3-7,71.3,52.7,35.2,40.6,30.5,15.4,93,50,15,29.94,29.78,7,1,12,0.00
2014-3-8,65.0,54.1,46.1,30.6,25.5,18.2,47,34,18,30.22,29.93,11,2,14,0.00
2014-3-9,72.0,52.9,36.6,30.9,24.9,14.7,72,38,12,30.29,30.07,7,1,0,0.00
2014-3-10,71.8,50.8,32.1,32.2,27.8,22.1,81,46,18,30.15,29.94,6,0,0,0.00
2014-3-11,69.6,51.4,33.5,33.9,21.8,7.2,83,40,11,30.02,29.87,7,1,0,0.00
2014-3-12,69.4,54.0,42.8,30.4,21.1,7.8,60,29,17,30.08,29.93,6,1,16,0.00
2014-3-13,66.5,50.5,36.4,37.4,31.6,26.5,76,51,25,30.00,29.83,5,0,0,0.00
2014-3-14,66.8,53.9,40.7,39.6,35.9,30.6,82,52,32,30.03,29.88,5,0,0,0.00
2014-3-15,71.0,53.7,34.3,35.8,16.9,-1.7,89,36,9,30.20,30.02,10,1,13,0.00
2014-3-16,75.8,57.0,41.1,29.8,15.0,1.5,53,22,9,30.26,30.04,13,1,15,0.00
2014-3-17,75.3,52.9,34.2,28.5,22.2,12.3,69,36,11,30.09,29.62,8,1,12,0.00
2014-3-18,66.0,50.2,35.2,20.0,9.3,-3.3,44,21,6,29.94,29.67,7,1,0,0.00
2014-3-19,71.2,48.7,31.1,20.5,11.7,-3.6,47,27,6,30.15,29.94,6,0,0,0.00
2014-3-20,72.0,50.3,30.5,24.1,18.4,12.0,61,33,11,30.13,29.89,6,0,0,0.00
2014-3-21,73.0,51.8,32.3,24.8,20.3,12.2,67,35,11,29.95,29.83,6,0,0,0.00
2014-3-22,71.6,52.3,33.1,32.8,25.8,21.1,69,40,17,30.03,29.89,7,0,0,0.00
2014-3-23,73.2,54.3,36.4,35.1,28.0,18.5,80,43,14,30.09,29.93,6,0,0,0.00
2014-3-24,78.7,60.1,39.8,26.8,17.3,1.6,55,24,7,30.07,29.91,6,0,0,0.00
2014-3-25,79.1,60.4,42.9,30.5,21.2,8.0,38,23,10,29.95,29.66,16,1,16,0.00
2014-3-26,63.8,55.2,47.1,34.8,30.1,24.9,55,39,27,29.73,29.54,15,1,16,0.00
2014-3-27,62.9,49.7,36.1,35.1,31.5,27.4,82,51,29,29.97,29.73,6,1,0,0.00
2014-3-28,70.6,49.6,30.9,30.9,25.8,18.1,82,46,15,30.16,29.96,6,0,0,0.00
2014-3-29,76.3,55.4,34.2,29.7,25.7,21.5,70,37,14,30.18,29.92,6,0,0,0.00
2014-3-30,71.8,53.6,40.9,36.6,24.6,15.2,61,36,12,29.93,29.70,13,1,19,0.00
2014-3-31,70.7,52.0,32.5,25.2,17.8,8.5,65,30,11,29.98,29.83,8,1,0,0.00
2014-4-1,67.7,55.6,46.4,30.5,18.2,8.5,53,25,11,29.87,29.68,11,1,14,0.00
2014-4-2,57.4,46.3,32.8,38.5,29.1,19.1,94,54,25,29.93,29.69,10,1,13,0.01
2014-4-3,63.9,43.2,27.7,37.0,29.1,20.0,97,65,21,30.09,29.92,5,0,0,0.06
2014-4-4,67.7,48.9,29.7,30.3,19.5,-0.8,86,41,9,30.09,29.82,6,0,16,0.00
2014-4-5,64.3,49.3,35.0,31.4,23.3,13.9,64,38,20,29.94,29.77,8,0,12,0.00
2014-4-6,73.5,53.7,32.9,30.4,24.3,13.2,76,39,11,30.02,29.88,6,1,0,0.00
2014-4-7,79.5,59.2,37.7,30.0,23.4,17.6,62,28,11,30.12,29.99,10,0,0,0.00
2014-4-8,84.5,61.1,37.7,29.0,21.8,5.4,58,28,6,30.18,29.99,7,0,0,0.00
2014-4-9,85.4,62.7,41.4,31.0,19.7,1.5,58,25,5,30.07,29.87,8,0,0,0.00
2014-4-10,87.3,63.0,40.6,25.5,13.5,-15.6,46,20,2,29.99,29.81,12,0,12,0.00
2014-4-11,84.7,63.5,44.8,36.3,21.6,7.7,55,24,6,29.92,29.74,8,0,12,0.00
2014-4-12,78.8,61.1,41.2,33.2,23.1,14.5,59,27,10,29.74,29.56,8,1,0,0.00
2014-4-13,76.3,58.4,38.1,32.8,21.0,-9.9,55,27,5,29.94,29.61,12,1,16,0.00
2014-4-14,72.8,56.0,43.3,19.7,13.6,6.4,32,20,8,30.07,29.93,9,1,15,0.00
2014-4-15,76.7,54.9,31.8,21.1,12.7,-5.2,50,23,5,30.06,29.77,6,0,0,0.00
2014-4-16,82.8,59.2,35.8,27.1,17.2,8.2,50,23,7,29.83,29.64,7,0,0,0.00
2014-4-17,84.9,63.2,42.3,31.5,25.8,20.2,62,28,10,29.90,29.75,7,0,0,0.00
2014-4-18,74.2,57.2,46.8,46.1,35.0,24.7,73,46,20,29.90,29.78,7,0,0,0.00
2014-4-19,77.3,58.3,41.1,43.1,38.7,34.8,90,53,24,29.97,29.85,11,0,12,0.00
2014-4-20,80.0,60.6,42.5,52.1,40.2,34.9,79,51,25,30.04,29.90,7,0,0,0.01
2014-4-21,87.3,65.7,45.0,43.1,37.2,29.3,80,42,13,30.03,29.81,8,0,0,0.00
2014-4-22,82.5,65.2,45.4,39.5,33.5,27.3,69,35,17,29.86,29.59,9,1,0,0.00
2014-4-23,77.0,60.7,44.4,32.1,19.0,5.7,55,23,7,29.86,29.61,11,1,0,0.00
2014-4-24,81.8,59.7,38.4,25.4,14.6,-99.9,50,24,7,29.95,29.79,8,0,0,0.00
2014-4-25,79.0,61.9,40.9,29.6,-42.2,-99.9,53,24,13,29.83,29.48,8,1,0,0.00
2014-4-26,66.0,58.9,55.0,37.7,-81.1,-99.9,49,38,17,29.49,29.36,5,2,0,0.00
2014-4-27,66.8,52.6,41.8,33.3,29.8,24.9,69,45,22,29.90,29.79,9,0,0,0.00
2014-4-28,76.8,56.3,34.6,34.5,26.5,11.9,88,40,12,30.05,29.84,9,1,12,0.00
2014-4-29,70.7,56.9,45.5,16.4,10.1,0.8,29,16,7,30.11,29.98,12,2,17,0.00
2014-4-30,72.5,57.5,47.7,23.2,15.2,6.4,31,19,11,30.09,29.94,15,2,21,0.00
2014-5-1,80.5,63.3,49.3,28.4,15.9,4.4,31,17,7,30.10,29.93,16,2,18,0.00
2014-5-2,87.2,64.8,42.4,29.2,21.2,9.2,44,22,7,30.03,29.80,7,0,0,0.00
2014-5-3,91.0,66.8,43.7,31.4,22.8,11.9,55,25,6,29.95,29.78,7,0,0,0.00
2014-5-4,89.9,67.1,43.4,30.8,21.3,8.9,53,23,6,29.91,29.75,9,1,0,0.00
2014-5-5,86.5,67.8,48.8,37.3,22.9,15.7,54,21,9,29.87,29.65,11,1,12,0.00
2014-5-6,73.9,60.7,49.0,28.9,23.5,13.4,34,24,15,29.66,29.49,10,1,13,0.00
2014-5-7,62.2,49.7,38.2,44.5,31.3,20.9,95,54,24,29.91,29.59,9,1,0,0.12
2014-5-8,73.3,55.1,40.2,45.3,36.6,26.3,97,58,20,29.98,29.89,8,0,0,0.02
2014-5-9,79.5,59.8,39.1,36.7,32.8,28.3,84,43,17,29.99,29.80,12,1,17,0.00
2014-5-10,81.7,63.5,41.7,38.1,33.5,27.1,76,37,19,29.85,29.48,9,1,0,0.00
2014-5-11,67.3,58.2,49.2,37.5,27.1,13.2,47,31,17,29.89,29.46,10,2,13,0.00
2014-5-12,77.5,58.7,36.2,32.0,23.5,2.5,65,30,6,30.10,29.88,11,1,15,0.00
2014-5-13,74.8,59.2,47.5,29.0,18.0,6.4,47,23,9,30.22,30.08,16,2,18,0.00
2014-5-14,80.4,64.8,51.8,22.5,13.8,0.4,28,15,6,30.25,30.03,14,2,15,0.00
2014-5-15,91.1,67.8,43.2,30.1,23.4,16.6,48,22,8,30.14,29.88,6,0,0,0.00
2014-5-16,94.6,71.7,47.7,33.2,22.2,9.5,54,21,5,29.99,29.72,6,1,0,0.00
2014-5-17,94.8,71.5,48.7,30.7,20.0,6.7,47,18,5,29.81,29.64,9,1,0,0.00
2014-5-18,88.0,69.8,50.0,36.6,16.6,-3.2,51,17,4,29.73,29.61,6,1,0,0.00
2014-5-19,87.1,70.5,52.6,28.6,15.7,-3.8,39,15,3,29.71,29.62,10,1,16,0.00
2014-5-20,83.3,67.9,51.5,25.8,16.8,6.2,29,16,6,29.77,29.67,10,1,12,0.00
2014-5-21,81.8,66.9,49.1,23.8,16.0,7.0,31,15,6,29.79,29.69,12,1,13,0.00
2014-5-22,81.8,62.8,42.0,27.8,17.0,-1.7,55,21,4,29.84,29.75,13,1,13,0.00
2014-5-23,80.2,63.3,49.3,33.0,21.8,9.4,46,23,7,29.85,29.75,6,0,0,0.00
2014-5-24,78.4,60.9,44.6,49.5,34.5,24.9,79,41,16,29.90,29.77,11,0,17,0.01
2014-5-25,85.6,65.6,46.7,48.6,41.0,33.0,86,48,17,29.89,29.73,7,0,0,0.00
2014-5-26,95.3,71.0,50.7,45.8,39.6,31.5,68,36,11,29.90,29.71,6,0,0,0.00
2014-5-27,98.5,75.5,52.4,44.8,36.7,22.0,67,30,7,29.92,29.69,5,0,0,0.00
2014-5-28,97.8,75.0,54.1,45.0,34.3,11.0,64,27,6,29.78,29.63,7,0,0,0.00
2014-5-29,84.9,68.4,56.9,57.2,42.6,30.9,81,41,24,29.88,29.69,5,0,0,0.02
2014-5-30,94.2,73.2,52.2,49.2,41.1,32.6,78,38,13,29.86,29.67,8,0,14,0.00
2014-5-31,95.3,76.0,52.6,40.9,35.5,31.3,61,27,12,29.77,29.60,8,1,0,0.00
2014-6-1,95.8,82.9,60.1,34.1,21.8,6.7,28,12,4,29.73,29.60,8,1,0,0.00
2014-6-2,99.3,76.3,50.2,31.6,23.9,12.2,47,18,5,29.78,29.61,7,1,0,0.00
2014-6-3,97.3,78.1,57.5,38.7,16.2,-99.9,40,14,1,29.68,29.57,9,1,0,0.00
2014-6-4,97.8,72.8,46.7,24.4,6.3,-99.9,39,12,1,29.74,29.61,11,1,0,0.00
2014-6-5,98.2,73.6,47.4,24.7,9.5,-9.3,40,12,2,29.73,29.56,10,0,0,0.00
2014-6-6,98.5,74.9,48.5,30.7,11.5,-99.9,38,13,1,29.67,29.52,7,0,0,0.00
2014-6-7,96.8,74.8,50.9,32.5,15.7,-6.7,45,15,2,29.66,29.54,6,1,0,0.00
2014-6-8,100.5,75.6,51.3,31.4,21.8,5.1,41,17,3,29.73,29.55,7,1,0,0.00
2014-6-9,99.8,83.0,63.9,39.7,22.8,10.7,25,12,5,29.76,29.54,11,1,12,0.00
2014-6-10,100.0,78.7,55.7,40.6,31.6,22.0,46,20,7,29.67,29.55,13,1,15,0.00
2014-6-11,93.2,76.9,61.5,41.9,30.5,16.3,45,21,9,29.72,29.58,12,1,12,0.00
2014-6-12,96.8,76.3,52.0,39.2,31.2,23.1,51,22,9,29.81,29.65,7,1,0,0.00
2014-6-13,94.8,78.6,57.0,46.5,33.6,16.4,58,23,8,29.73,29.54,12,2,15,0.00
2014-6-14,93.2,75.4,55.7,36.6,15.8,-8.3,48,14,2,29.62,29.52,11,1,14,0.00
2014-6-15,91.1,70.1,48.7,27.3,16.9,3.1,42,16,5,29.71,29.62,8,1,0,0.00
2014-6-16,93.4,75.6,53.4,30.7,19.2,5.5,32,14,4,29.74,29.59,14,2,17,0.00
2014-6-17,91.1,78.4,67.0,35.2,30.3,25.6,23,18,12,29.66,29.55,13,2,15,0.00
2014-6-18,89.2,73.9,57.5,35.1,31.5,26.5,36,22,12,29.76,29.60,8,1,12,0.00
2014-6-19,94.5,76.8,49.5,38.0,30.8,22.3,56,22,8,29.86,29.74,6,1,0,0.00
2014-6-20,99.7,78.2,54.6,39.1,31.0,23.7,49,22,9,29.84,29.64,9,1,17,0.00
2014-6-21,99.1,78.8,56.4,42.4,35.6,28.0,57,24,10,29.76,29.60,12,1,12,0.00
2014-6-22,98.2,77.3,55.8,42.3,30.8,10.0,59,23,6,29.75,29.61,6,1,0,0.00
2014-6-23,97.8,76.7,54.7,39.7,26.7,9.2,50,20,4,29.78,29.66,9,1,0,0.00
2014-6-24,97.5,76.6,54.6,39.0,26.9,6.8,55,21,4,29.83,29.67,7,1,0,0.00
2014-6-25,97.1,76.6,53.5,40.5,26.0,8.7,61,20,4,29.78,29.64,6,1,0,0.00
2014-6-26,93.5,76.4,54.6,40.3,33.8,28.7,54,24,12,29.74,29.55,8,1,0,0.00
2014-6-27,94.8,76.6,56.8,45.3,40.4,36.3,61,30,14,29.65,29.52,8,1,12,0.00
2014-6-28,100.2,79.7,56.7,46.2,41.0,33.0,63,29,11,29.71,29.58,9,1,0,0.00
2014-6-29,101.0,80.9,60.1,49.5,45.5,41.4,63,32,14,29.78,29.61,8,0,0,0.00
2014-6-30,103.3,82.6,60.2,49.5,44.4,34.6,66,31,10,29.76,29.55,6,0,0,0.00
2014-7-1,100.0,79.7,63.0,48.8,42.8,32.6,57,30,14,29.69,29.58,11,1,19,0.00
2014-7-2,103.7,80.3,60.3,51.2,42.9,36.5,54,30,11,29.78,29.63,9,0,12,0.00
2014-7-3,102.5,79.5,60.5,55.9,47.4,41.0,56,35,14,29.85,29.66,9,0,0,0.00
2014-7-4,97.5,78.6,65.5,63.2,55.9,49.3,89,51,21,29.91,29.74,7,1,0,0.01
2014-7-5,95.8,76.3,59.8,65.5,58.3,52.8,95,60,25,29.96,29.78,6,0,0,0.23
2014-7-6,88.5,74.8,63.8,67.9,61.9,52.6,97,68,40,29.89,29.73,7,0,0,0.26
2014-7-7,95.8,72.6,64.8,66.3,61.2,55.5,92,71,29,29.81,29.70,5,0,0,0.13
2014-7-8,95.7,75.8,60.1,63.0,58.1,51.6,95,59,27,29.87,29.75,7,0,0,0.00
2014-7-9,90.2,76.1,61.8,62.2,57.4,54.3,86,55,32,29.86,29.70,4,0,0,0.00
2014-7-10,93.2,75.4,61.8,65.4,58.5,53.9,88,59,29,29.81,29.67,5,0,0,0.02
2014-7-11,97.3,79.6,60.1,60.1,56.3,51.2,89,50,23,29.84,29.68,7,0,0,0.00
2014-7-12,101.7,79.0,64.0,68.5,57.5,50.3,94,54,20,29.84,29.65,5,0,0,0.11
2014-7-13,95.9,73.7,62.9,73.8,63.2,56.6,95,75,28,29.86,29.72,4,0,0,0.22
2014-7-14,93.0,75.2,66.3,65.5,61.0,54.1,93,65,30,29.95,29.83,7,0,0,0.01
2014-7-15,87.7,74.6,64.5,64.6,59.9,53.1,86,63,33,29.94,29.79,8,0,0,0.00
2014-7-16,94.6,76.4,61.7,67.6,58.7,54.4,85,59,28,29.85,29.68,8,1,0,0.00
2014-7-17,99.3,78.9,60.3,61.8,50.2,36.8,90,46,15,29.79,29.63,6,1,0,0.00
2014-7-18,99.3,78.8,59.0,48.2,42.8,34.3,67,32,13,29.82,29.67,7,0,0,0.00
2014-7-19,95.3,78.0,62.2,54.0,47.4,42.9,64,37,18,29.83,29.69,6,0,0,0.00
2014-7-20,96.6,77.6,60.5,54.7,45.9,38.5,71,38,14,29.87,29.74,7,0,0,0.00
2014-7-21,65.7,60.0,57.0,46.2,43.3,40.9,67,54,42,29.89,29.83,0,0,0,0.00
2014-7-23,103.0,89.1,77.3,71.0,54.7,47.8,80,33,17,29.88,29.71,7,0,0,0.03
2014-7-24,93.7,75.6,69.7,69.6,61.2,56.3,89,63,30,29.80,29.76,5,0,0,0.05
2014-7-25,98.0,82.0,70.8,63.5,56.1,50.8,71,45,22,29.85,29.67,7,1,0,0.02
2014-7-26,103.0,84.5,65.7,60.1,54.6,46.0,79,42,16,29.85,29.65,6,1,0,0.00
2014-7-27,99.8,82.6,68.6,64.2,54.8,47.9,61,41,18,29.90,29.66,6,1,0,0.00
2014-7-28,93.5,77.3,62.7,63.8,58.6,52.3,94,57,26,29.95,29.82,8,0,0,0.09
2014-7-29,96.5,79.6,62.5,65.3,56.3,51.4,84,49,25,29.91,29.73,8,0,0,0.01
2014-7-30,100.8,81.6,62.9,58.4,51.6,45.6,74,40,17,29.82,29.66,7,0,0,0.00
2014-7-31,95.8,74.5,62.7,64.3,55.9,48.7,97,58,25,29.86,29.74,11,0,14,0.39
2014-8-1,94.2,74.4,61.6,64.2,58.3,49.8,97,62,27,29.90,29.77,5,0,0,0.34
2014-8-2,88.0,72.3,60.5,64.6,59.4,55.9,96,67,38,29.91,29.77,7,0,0,0.14
2014-8-3,85.3,71.6,64.1,70.2,63.7,59.9,98,79,45,29.90,29.76,8,0,0,0.25
2014-8-4,90.5,75.0,59.9,62.6,55.9,40.9,97,58,22,29.90,29.73,9,0,0,0.00
2014-8-5,93.3,75.1,57.6,57.7,53.1,46.3,90,52,25,29.90,29.76,6,0,0,0.00
2014-8-6,95.0,75.2,55.8,51.5,46.0,39.3,82,42,16,29.89,29.72,7,0,0,0.00
2014-8-7,96.8,75.0,54.2,46.1,40.7,31.3,69,35,11,29.84,29.71,8,0,0,0.00
2014-8-8,96.0,75.4,56.2,50.5,45.7,39.6,70,39,17,29.84,29.70,8,0,0,0.00
2014-8-9,98.8,76.8,59.7,54.3,49.0,41.7,71,43,15,29.85,29.72,6,0,0,0.00
2014-8-10,99.3,75.5,61.6,64.1,54.9,43.3,94,55,18,29.85,29.68,8,0,0,0.23
2014-8-11,94.7,75.6,60.1,66.8,58.6,52.6,88,59,28,29.90,29.77,7,0,0,0.02
2014-8-12,89.3,72.4,63.8,65.0,61.9,58.7,97,73,38,29.92,29.75,6,0,0,0.94
2014-8-13,79.8,66.8,62.9,69.1,64.7,62.0,98,93,65,29.91,29.85,3,0,0,0.66
2014-8-14,89.0,72.9,60.8,68.1,62.8,57.9,99,75,37,29.94,29.77,7,0,0,0.01
2014-8-15,92.9,76.1,62.0,65.6,60.6,52.1,96,65,27,29.91,29.75,6,0,0,0.00
2014-8-16,96.6,76.4,59.5,61.0,56.2,48.1,92,57,20,29.89,29.74,6,0,0,0.00
2014-8-17,98.8,77.9,61.6,60.6,57.0,50.1,85,54,22,29.85,29.67,5,0,0,0.00
2014-8-18,92.0,71.8,61.5,65.3,59.9,51.9,93,70,33,29.80,29.66,6,0,0,0.09
2014-8-19,70.0,63.7,59.4,66.3,61.9,58.4,98,94,84,29.83,29.73,5,0,0,1.34
2014-8-20,84.8,67.0,55.3,64.0,58.6,53.3,99,78,41,29.94,29.78,6,0,0,0.01
2014-8-21,82.8,64.4,56.4,63.4,58.7,53.3,97,84,43,29.93,29.84,5,0,0,0.31
2014-8-22,81.7,67.9,60.4,64.5,58.8,53.1,98,76,39,29.93,29.80,8,0,0,0.03
2014-8-23,83.8,68.2,55.1,60.7,57.0,53.9,98,71,37,29.89,29.75,5,0,0,0.00
2014-8-24,88.0,70.1,55.1,60.5,56.0,53.3,97,66,32,29.85,29.71,4,0,0,0.00
2014-8-25,85.7,69.9,60.0,62.0,57.1,51.4,91,66,40,29.87,29.76,6,0,0,0.00
2014-8-26,81.2,65.5,58.2,63.7,59.1,55.0,97,82,48,29.97,29.85,12,0,12,0.19
2014-8-27,85.2,67.4,57.1,67.0,60.3,54.3,99,81,38,30.05,29.91,8,0,0,0.39
2014-8-28,92.3,71.9,54.4,60.3,54.0,42.8,98,60,24,29.98,29.78,5,0,0,0.00
2014-8-29,94.1,72.6,53.8,56.2,50.8,44.4,87,53,20,29.85,29.68,4,0,0,0.00
2014-8-30,95.0,73.9,55.3,55.0,50.0,43.8,83,49,18,29.81,29.66,5,0,0,0.00
2014-8-31,92.8,73.6,56.3,54.1,49.9,45.5,83,49,20,29.78,29.66,8,0,0,0.00
2014-9-1,94.0,73.2,56.0,54.8,50.2,39.8,84,51,18,29.81,29.69,5,0,0,0.00
2014-9-2,95.2,74.9,55.1,55.6,47.6,37.8,83,45,16,29.81,29.66,3,0,0,0.00
2014-9-3,94.9,73.3,53.9,52.5,46.7,41.8,77,44,18,29.75,29.59,5,0,0,0.00
2014-9-4,86.5,70.8,60.3,65.8,55.6,46.7,83,60,38,29.79,29.63,4,0,0,0.05
2014-9-5,90.4,73.9,59.9,62.8,48.5,52.6,91,63,29,29.86,29.75,4,0,0,0.00
2014-9-6,68.0,68.0,68.0,-99.9,0.0,200.0,77,77,77,29.96,29.69,0,0,0,0.00
2014-9-7,68.0,68.0,68.0,-99.9,0.0,200.0,77,77,77,30.00,29.82,0,0,0,0.00
2014-9-8,79.2,69.8,67.4,66.7,34.4,61.9,95,79,58,29.97,29.69,4,0,2,0.39
2014-9-9,80.5,70.2,64.9,66.2,63.4,59.0,95,80,49,29.83,29.73,4,0,0,0.02
2014-9-10,88.0,69.6,55.8,62.9,56.5,50.3,98,68,30,29.89,29.74,4,0,0,0.00
2014-9-11,91.0,69.6,51.0,54.3,47.2,37.5,88,52,16,29.88,29.73,4,0,0,0.00
2014-9-12,94.2,71.8,53.1,50.5,46.5,39.3,82,47,16,29.86,29.71,4,0,0,0.00
2014-9-13,93.1,72.3,55.8,59.7,52.0,41.4,75,52,26,29.86,29.70,3,0,0,0.00
2014-9-14,92.1,72.6,57.3,63.9,56.4,53.4,89,61,31,29.83,29.68,5,0,0,0.00
2014-9-15,93.4,72.7,58.6,63.0,56.3,49.2,90,61,25,29.86,29.73,11,0,0,0.00
2014-9-16,87.7,70.9,57.9,64.6,58.3,52.3,92,66,41,29.89,29.75,4,0,0,0.01
2014-9-17,80.5,67.7,60.9,70.2,63.7,59.9,98,88,55,29.79,29.67,5,0,0,0.27
2014-9-18,90.5,70.8,57.2,65.2,61.2,56.6,99,75,37,29.78,29.61,2,0,0,0.01
2014-9-19,89.2,71.0,61.7,71.2,63.9,60.3,95,80,43,29.76,29.66,7,0,0,0.10
2014-9-20,89.7,72.7,57.3,64.4,59.9,55.9,98,69,34,29.85,29.71,3,0,0,0.00
2014-9-21,87.9,72.3,60.5,64.7,58.7,53.7,94,66,33,29.87,29.75,5,0,0,0.00
2014-9-22,89.0,70.7,55.3,58.8,55.2,49.6,94,63,29,29.95,29.81,4,0,0,0.00
2014-9-23,92.2,69.8,53.0,55.3,50.1,40.1,89,56,18,29.95,29.80,4,0,0,0.00
2014-9-24,94.5,72.0,53.0,54.1,49.5,44.6,81,50,22,29.94,29.77,3,0,0,0.00
2014-9-25,92.5,73.5,57.2,57.1,53.0,49.8,82,53,25,29.91,29.75,5,0,0,0.00
2014-9-26,89.4,72.4,56.0,61.1,55.8,49.9,93,59,35,29.85,29.66,6,0,0,0.02
2014-9-27,78.4,65.0,59.3,63.7,60.6,57.5,97,87,52,29.73,29.53,9,0,0,0.32
2014-9-28,75.3,61.6,50.8,60.8,50.8,37.0,98,73,28,29.82,29.69,5,1,12,0.01
2014-9-29,77.1,58.6,44.0,48.9,42.1,31.8,97,62,22,29.90,29.81,4,0,0,0.00
2014-9-30,80.9,60.3,43.5,46.5,42.6,38.4,90,58,24,29.90,29.73,5,0,0,0.00
2014-10-1,80.2,62.0,44.9,47.9,41.3,33.5,90,53,24,29.90,29.73,7,0,0,0.00
2014-10-2,84.9,63.2,48.4,37.4,28.9,17.3,61,30,9,30.07,29.90,10,0,0,0.00
2014-10-3,89.3,65.5,43.2,38.7,29.7,22.3,56,30,11,30.13,29.97,4,0,0,0.00
2014-10-4,89.2,65.3,45.9,41.2,33.5,28.5,65,35,12,30.04,29.85,4,0,0,0.00
2014-10-5,88.3,63.8,44.2,39.4,33.8,21.8,72,39,10,29.97,29.83,3,0,0,0.00
2014-10-6,87.8,65.5,47.2,42.1,36.8,29.8,64,39,15,29.97,29.82,5,0,0,0.00
2014-10-7,80.5,64.8,50.0,47.1,40.7,31.6,72,45,20,29.95,29.83,4,0,0,0.00
2014-10-8,70.7,62.7,57.9,54.8,50.1,42.5,84,64,51,29.87,29.74,5,0,0,0.01
2014-10-9,77.1,61.9,53.7,56.7,53.5,48.5,98,77,42,29.89,29.75,4,0,0,0.20
2014-10-10,81.8,64.4,48.2,56.9,53.3,47.1,98,71,37,29.97,29.84,6,0,0,0.00
2014-10-11,84.0,63.8,48.6,55.4,46.8,29.0,98,63,15,29.99,29.82,5,0,0,0.00
2014-10-12,84.1,62.8,46.0,50.6,35.9,13.1,93,47,13,29.95,29.69,10,1,12,0.00
2014-10-13,80.3,62.7,50.2,32.4,24.9,16.3,38,25,12,30.04,29.94,7,1,13,0.00
2014-10-14,84.8,61.6,42.2,37.9,29.9,18.8,61,34,13,30.07,29.88,4,0,0,0.00
2014-10-15,81.0,61.1,44.8,42.4,38.9,34.6,74,48,21,29.97,29.87,5,0,0,0.00
2014-10-16,82.8,62.0,45.0,47.0,39.8,31.0,85,50,16,29.96,29.83,4,0,0,0.00
2014-10-17,63.7,54.8,48.7,45.2,41.6,38.6,74,62,44,29.95,29.86,1,0,0,0.00
2014-10-18,81.3,63.7,48.8,46.6,42.1,37.3,74,48,24,29.90,29.75,4,0,0,0.00
2014-10-19,82.8,63.7,51.0,49.4,44.0,38.8,73,51,25,29.89,29.72,5,0,0,0.00
2014-10-20,79.7,60.3,46.1,48.4,43.9,40.3,83,59,28,29.94,29.81,5,0,0,0.00
2014-10-21,79.8,60.3,44.8,50.0,44.9,40.8,89,61,28,29.93,29.77,6,0,0,0.00
2014-10-22,81.2,60.0,45.0,48.9,41.9,31.4,91,57,18,30.01,29.88,3,0,0,0.00
2014-10-23,83.5,61.1,44.9,46.4,41.2,37.8,84,53,23,30.09,29.95,3,0,0,0.00
2014-10-24,85.4,61.8,44.8,46.3,39.6,30.3,82,50,15,30.11,29.96,5,0,0,0.00
2014-10-25,85.2,64.7,45.9,51.2,45.0,38.6,82,52,27,30.08,29.89,6,0,0,0.00
2014-10-26,81.1,62.2,48.1,51.7,45.9,37.9,87,59,24,29.90,29.72,5,0,0,0.00
2014-10-27,76.2,58.5,45.1,49.2,43.7,33.0,94,63,26,29.93,29.76,5,0,0,0.00
2014-10-28,78.2,57.1,42.2,47.0,40.3,34.6,90,58,22,30.06,29.93,4,0,0,0.00
2014-10-29,82.0,59.5,42.5,41.5,36.5,30.3,79,47,20,30.12,29.97,4,0,0,0.00
2014-10-30,83.0,60.1,42.6,40.1,33.6,29.6,68,41,16,30.10,29.94,5,0,0,0.00
2014-10-31,81.0,62.7,46.1,47.4,39.4,32.1,69,45,25,30.00,29.75,5,0,0,0.00
2014-11-1,70.4,62.0,54.9,52.2,47.9,44.8,89,61,43,29.75,29.67,6,1,0,0.01
2014-11-2,55.8,49.0,36.3,49.0,42.8,34.1,95,80,57,29.99,29.72,3,0,0,0.17
2014-11-3,63.2,46.3,31.7,36.4,31.0,23.2,97,61,29,30.15,29.99,9,1,0,0.00
2014-11-4,65.0,52.1,44.7,31.7,25.2,17.8,50,36,19,30.23,30.10,12,1,12,0.00
2014-11-5,72.6,56.2,42.2,32.6,25.2,16.8,50,32,13,30.23,30.09,6,1,0,0.00
2014-11-6,78.1,54.4,35.9,30.9,26.5,17.9,68,39,11,30.33,30.14,4,0,0,0.00
2014-11-7,77.0,51.7,34.1,34.1,26.5,20.8,71,42,13,30.25,30.05,3,0,0,0.00
2014-11-8,80.2,59.0,45.1,37.1,30.5,25.3,56,37,15,30.18,30.02,6,0,0,0.00
2014-11-9,75.8,54.2,38.3,37.7,33.0,28.7,73,49,20,30.08,29.81,5,0,0,0.00
2014-11-10,73.5,52.9,37.8,39.0,34.2,31.0,83,54,25,29.87,29.72,7,0,0,0.00
2014-11-11,70.9,51.5,35.7,38.0,33.6,29.9,83,55,25,29.95,29.81,7,0,0,0.00
2014-11-12,69.0,52.8,41.9,44.9,39.5,34.6,84,63,35,29.99,29.81,6,0,0,0.00
2014-11-13,69.1,53.5,38.7,47.6,41.9,35.5,96,68,38,30.06,29.90,3,0,12,0.00
2014-11-14,58.4,50.8,41.6,48.2,45.0,39.5,94,81,66,29.98,29.87,4,0,0,0.00
2014-11-15,62.7,51.3,41.8,47.5,42.6,30.8,97,74,37,30.04,29.84,7,0,0,0.00
2014-11-16,53.4,45.3,34.8,43.5,10.8,-8.5,76,30,8,30.26,29.83,11,1,0,0.00
2014-11-17,60.1,42.0,29.0,15.9,6.0,-1.8,38,23,12,30.34,30.19,4,0,0,0.00
2014-11-18,63.2,44.0,26.6,20.0,13.2,9.0,57,32,13,30.35,30.23,5,0,0,0.00
2014-11-19,61.7,36.4,27.3,16.6,13.9,10.9,57,43,14,30.30,30.19,2,0,0,0.00
2014-11-20,64.3,50.1,33.7,26.2,19.3,13.5,54,32,14,30.17,30.00,4,0,0,0.00
2014-11-21,62.1,44.3,33.7,30.5,23.1,15.4,64,45,22,30.08,29.90,3,0,0,0.00
2014-11-22,63.3,43.8,28.3,27.7,24.1,20.5,77,50,22,30.16,29.97,6,0,0,0.00
2014-11-23,60.6,41.7,26.5,26.5,12.3,-6.0,78,38,8,30.25,29.97,5,0,0,0.00
2014-11-24,59.7,40.0,22.6,11.9,5.0,-1.1,45,25,12,30.47,30.24,10,1,12,0.00
2014-11-25,56.5,39.6,24.2,16.4,5.6,-2.3,44,27,9,30.53,30.35,5,0,0,0.00
2014-11-26,71.7,47.1,30.4,31.7,21.9,13.4,63,40,18,30.47,30.30,3,0,0,0.00
2014-11-27,74.5,52.1,35.1,28.1,22.4,18.6,56,34,14,30.36,30.16,3,0,0,0.00
2014-11-28,73.5,48.2,32.5,27.5,21.7,17.6,64,40,12,30.18,29.98,4,0,0,0.00
2014-11-29,68.8,47.5,31.5,27.7,22.6,19.8,70,42,18,30.03,29.89,5,0,0,0.00
2014-11-30,65.2,48.1,35.9,32.1,25.1,20.3,61,43,23,30.14,29.94,6,0,0,0.00
2014-12-1,60.7,43.8,31.1,33.9,28.1,23.3,78,56,31,30.29,30.13,2,0,0,0.00
2014-12-2,60.5,47.8,37.3,43.9,30.5,22.2,94,56,25,30.18,30.01,3,0,0,0.06
2014-12-3,52.8,48.9,44.4,52.0,48.0,42.8,98,97,94,30.10,29.99,2,0,0,1.06
2014-12-4,52.5,48.8,41.7,52.0,48.0,40.9,99,97,90,30.10,29.94,1,0,0,0.99
2014-12-5,58.7,48.5,39.8,50.7,44.4,39.3,99,87,61,30.24,30.09,3,0,0,0.01
2014-12-6,59.6,47.2,40.0,47.5,43.0,38.8,98,86,55,30.27,30.17,1,0,0,0.00
2014-12-7,65.6,47.0,35.3,46.9,39.7,34.5,98,79,41,30.34,30.19,2,0,0,0.00
2014-12-8,63.4,47.4,38.0,47.1,40.1,35.3,94,78,44,30.27,30.12,2,0,0,0.00
2014-12-9,64.0,48.3,39.6,45.0,39.9,36.4,94,75,47,30.19,30.04,4,0,0,0.00
2014-12-10,65.5,48.1,37.3,47.9,41.4,35.7,96,80,49,30.14,30.00,3,0,0,0.00
2014-12-11,64.6,48.9,37.6,47.4,42.1,36.6,98,80,51,30.10,30.00,3,0,0,0.00
2014-12-12,62.5,51.5,41.4,48.1,42.4,36.2,94,73,40,30.09,29.94,4,0,0,0.04
2014-12-13,50.0,42.9,36.2,48.1,40.9,35.1,97,93,70,30.05,29.87,6,0,0,0.67
2014-12-14,48.4,37.6,30.1,40.4,34.7,29.0,98,90,65,30.20,30.04,4,0,0,0.00
2014-12-15,52.9,39.0,28.5,41.1,34.0,27.8,98,84,56,30.23,30.10,2,0,0,0.00
2014-12-16,55.1,43.3,35.8,40.7,35.7,32.9,96,77,48,30.12,29.99,3,0,0,0.00
2014-12-17,40.9,38.4,36.1,40.0,37.3,34.3,97,96,88,30.18,30.01,3,0,0,0.50
2014-12-18,47.3,38.4,29.8,40.2,36.3,28.8,98,93,70,30.27,30.13,3,0,0,0.01
2014-12-19,51.7,36.4,26.6,37.8,32.0,25.9,98,86,54,30.36,30.22,2,0,0,0.01
2014-12-20,53.9,39.4,29.0,38.0,33.5,27.9,98,82,44,30.27,30.11,2,0,0,0.00
2014-12-21,56.4,40.7,30.1,42.0,34.6,29.1,98,81,45,30.20,30.05,2,0,0,0.01
2014-12-22,62.9,42.8,33.7,44.0,37.4,32.6,98,84,45,30.11,29.90,3,0,0,0.00
2014-12-23,52.2,42.7,34.1,22.0,15.5,8.8,46,33,21,30.25,30.05,11,1,12,0.00
2014-12-24,52.1,38.0,25.3,29.3,20.8,8.6,80,53,27,30.26,29.87,3,0,0,0.00
2014-12-25,48.9,37.4,24.9,32.3,21.5,11.5,71,53,38,29.87,29.66,9,0,0,0.00
2014-12-26,41.5,29.2,20.0,24.2,19.2,15.7,90,67,43,30.23,29.82,3,0,0,0.00
2014-12-27,44.0,30.7,21.9,20.4,17.3,13.6,82,59,34,30.45,30.23,7,0,0,0.00
2014-12-28,42.4,28.2,18.8,21.8,18.3,15.4,91,70,34,30.43,30.27,2,0,0,0.00
2014-12-29,47.9,30.3,18.5,23.3,18.4,14.3,93,66,29,30.31,30.15,4,0,0,0.00
2014-12-30,52.3,36.9,25.8,21.9,17.1,11.9,73,47,23,30.16,29.91,4,0,0,0.00
2014-12-31,37.1,31.5,29.1,30.0,27.8,20.3,95,87,54,29.97,29.87,5,0,0,0.00
2015-1-1,36.3,27.3,20.2,29.1,23.9,16.8,95,87,71,30.21,29.93,0,0,0,0.03
2015-1-2,40.0,27.6,19.0,25.2,20.3,15.9,91,75,48,30.23,30.11,5,0,0,0.00